Orbital Elements at Epoch 2459200.5 (2020-Dec-17.0) TDB
Reference: JPL 17 (heliocentric ecliptic J2000)
Element | Value | Uncertainty (1-sigma) | Units |
e | .1184973476240053 | 5.1393e-08 | |
a | 2.748701668866501 | 2.2565e-08 | au |
q | 2.422987811696144 | 1.3085e-07 | au |
i | 7.581280636576876 | 4.9432e-06 | deg |
node | 309.1869030564476 | 3.8001e-05 | deg |
peri | 164.8355143349863 | 4.6383e-05 | deg |
M | 212.1220735329416 | 3.1318e-05 | deg |
tp | 2459884.239527608808 (2022-Oct-31.73952761) | 0.00015039 | TDB |
period | 1664.523136209939 4.56 | 2.0497e-05 5.612e-08 | d yr |
n | .2162781592929417 | 2.6632e-09 | deg/d |
Q | 3.074415526036859 | 2.5239e-08 | au |
|
| | Orbit Determination Parameters
Additional Information
|